Content
SEND FEEDBACK

Daily
Averages
Monthly
Summary
United States of America

HAMILTON, WASHINGTON


Home > North America > United States > Washington
Elevation: 585 feet     Latitude: 48 32N     Longitude: 121 45W

WEATHER
 
SELECT A DAY
Number of Records: 272,889;   Date Range: 5/6/03 - 7/7/14
 
SHARE

PRINT THIS DATA

[ ← Previous Day ]
WEATHER ALMANAC - JANUARY 31, 2013
[ Next Day → ]
[ °C ]   °F
Weather ElementAverageHighLow
Temperature45.9 °F48.2 °F (11:55 am)42.8 °F (12:35 am)
Dewpoint45.9 °F48.2 °F (11:55 am)42.8 °F (12:35 am)
Humidity100 %100 % (12:35 am)100 % (12:35 am)
Barometer30.34 in30.39 in (1:55 am)30.31 in (1:15 pm)
Wind Speed4.2 mph12.7 mph (11:15 am)
Wind Gust17.3 mph (1:35 pm)
Weather ElementAverage
Visibility7 mi
Wind DirectionESE (102.9 °)

Weather ElementTotal
Precipitation0.31 in
Heating Degree Days19.5 (Base 65)
Averaged from 68 records on January 31, 2013
WEATHER CONDITIONS BREAKOUT
WIND DIRECTION BREAKOUT
WEATHER BY HOUR - JANUARY 31, 2013
[ °C ]   °F
Local TimeTemperatureDewpointHumidityBarometerVisibilityWind DirectionWind SpeedGust SpeedPrecipitationEventsConditions
12:35 AM42.8 °F42.8 °F100 %30.38 in1.8 miCalm0.02 inOvercast
12:55 AM44.6 °F44.6 °F100 %30.38 in1.8 miCalm0.03 inOvercast
1:15 AM44.6 °F44.6 °F100 %30.38 in1.8 miESE (110°)3.5 mph0.01 inOvercast
1:35 AM44.6 °F44.6 °F100 %30.38 in1.0 miSSE (160°)4.6 mph0.01 inOvercast
1:55 AM46.4 °F46.4 °F100 %30.39 in1.5 miSSE (160°)3.5 mph0.04 inOvercast
2:15 AM46.4 °F46.4 °F100 %30.38 in3.0 miSSE (150°)3.5 mph0.00 inOvercast
2:35 AM44.6 °F44.6 °F100 %30.38 in6.0 miENE (60°)3.5 mph0.01 inOvercast
2:55 AM44.6 °F44.6 °F100 %30.38 in5.0 miEast (90°)3.5 mph0.01 inOvercast
3:15 AM44.6 °F44.6 °F100 %30.38 in5.0 miEast (80°)3.5 mph0.00 inOvercast
3:35 AM44.6 °F44.6 °F100 %30.38 in6.0 miCalm0.00 inOvercast
3:55 AM44.6 °F44.6 °F100 %30.38 in5.0 miCalm0.01 inOvercast
4:15 AM44.6 °F44.6 °F100 %30.38 in6.0 miCalm0.00 inOvercast
4:55 AM44.6 °F44.6 °F100 %30.38 in9.0 miCalm0.00 inOvercast
5:15 AM44.6 °F44.6 °F100 %30.38 in10.0 miCalm0.00 inOvercast
5:35 AM44.6 °F44.6 °F100 %30.37 in10.0 miCalm0.00 inOvercast
5:55 AM44.6 °F44.6 °F100 %30.37 in10.0 miCalm0.00 inOvercast
6:15 AM44.6 °F44.6 °F100 %30.36 in10.0 miEast (100°)3.5 mph0.00 inOvercast
6:35 AM44.6 °F44.6 °F100 %30.37 in10.0 miENE (70°)3.5 mph0.00 inOvercast
6:55 AM44.6 °F44.6 °F100 %30.37 in10.0 miENE (70°)3.5 mph0.00 inOvercast
7:15 AM44.6 °F44.6 °F100 %30.36 in10.0 miENE (70°)3.5 mph0.00 inOvercast
7:35 AM44.6 °F44.6 °F100 %30.36 in10.0 miCalm0.00 inOvercast
7:55 AM44.6 °F44.6 °F100 %30.36 in8.0 miSE (130°)4.6 mph0.00 inOvercast
8:15 AM44.6 °F44.6 °F100 %30.35 in7.0 miESE (120°)5.8 mph0.00 inOvercast
8:35 AM46.4 °F46.4 °F100 %30.36 in5.0 miESE (120°)4.6 mph0.00 inOvercast
8:55 AM44.6 °F44.6 °F100 %30.36 in4.0 miESE (120°)4.6 mph0.01 inOvercast
9:15 AM46.4 °F46.4 °F100 %30.35 in5.0 miSE (130°)5.8 mph0.01 inOvercast
9:35 AM46.4 °F46.4 °F100 %30.35 in5.0 miSE (130°)6.9 mph0.01 inOvercast
9:55 AM46.4 °F46.4 °F100 %30.34 in6.0 miEast (100°)6.9 mph0.02 inOvercast
10:55 AM46.4 °F46.4 °F100 %30.35 in5.0 miSE (130°)8.1 mph0.02 inOvercast
11:15 AM46.4 °F46.4 °F100 %30.34 in10.0 miSE (140°)12.7 mph16.1 mph0.00 inOvercast
11:35 AM46.4 °F46.4 °F100 %30.33 in10.0 miSE (140°)8.1 mph0.00 inOvercast
11:55 AM48.2 °F48.2 °F100 %30.33 in10.0 miSSE (150°)9.2 mph0.00 inOvercast
12:15 PM48.2 °F48.2 °F100 %30.33 in10.0 miSE (140°)8.1 mph0.00 inOvercast
12:35 PM48.2 °F48.2 °F100 %30.32 in10.0 miSSE (150°)6.9 mph0.00 inOvercast
12:55 PM48.2 °F48.2 °F100 %30.32 in8.0 miSSE (150°)6.9 mph16.1 mph0.00 inOvercast
1:15 PM48.2 °F48.2 °F100 %30.31 in10.0 miSSE (160°)9.2 mph16.1 mph0.00 inOvercast
1:35 PM48.2 °F48.2 °F100 %30.31 in9.0 miSSE (150°)10.4 mph17.3 mph0.00 inOvercast
1:55 PM48.2 °F48.2 °F100 %30.31 in7.0 miSSE (150°)8.1 mph0.01 inOvercast
2:15 PM48.2 °F48.2 °F100 %30.31 in5.0 miSSE (160°)6.9 mph0.01 inOvercast
2:35 PM48.2 °F48.2 °F100 %30.31 in5.0 miSSE (150°)5.8 mph0.02 inOvercast
2:55 PM48.2 °F48.2 °F100 %30.31 in6.0 miSE (130°)6.9 mph0.03 inOvercast
3:15 PM46.4 °F46.4 °F100 %30.31 in8.0 miSE (140°)6.9 mph0.00 inOvercast
3:35 PM46.4 °F46.4 °F100 %30.31 in3.0 miSSE (150°)4.6 mph0.00 inOvercast
3:55 PM46.4 °F46.4 °F100 %30.31 in1.8 miSE (140°)4.6 mph0.00 inOvercast
4:15 PM46.4 °F46.4 °F100 %30.31 in1.8 miSSE (150°)4.6 mph0.01 inOvercast
4:35 PM46.4 °F46.4 °F100 %30.31 in7.0 miSE (140°)5.8 mph0.01 inOvercast
4:55 PM46.4 °F46.4 °F100 %30.31 in10.0 miSSE (160°)5.8 mph0.01 inOvercast
5:15 PM46.4 °F46.4 °F100 %30.31 in10.0 miSE (140°)4.6 mph0.00 inOvercast
5:35 PM46.4 °F46.4 °F100 %30.31 in10.0 miENE (70°)4.6 mph0.00 inOvercast
5:55 PM46.4 °F46.4 °F100 %30.31 in10.0 miCalm0.00 inOvercast
6:15 PM46.4 °F46.4 °F100 %30.31 in10.0 miESE (120°)4.6 mph0.00 inOvercast
6:35 PM46.4 °F46.4 °F100 %30.31 in10.0 miSE (140°)5.8 mph0.00 inMostly Cloudy
6:55 PM46.4 °F46.4 °F100 %30.31 in10.0 miSSE (150°)3.5 mph0.00 inOvercast
7:15 PM46.4 °F46.4 °F100 %30.31 in10.0 miCalm0.00 inOvercast
7:35 PM46.4 °F46.4 °F100 %30.31 in10.0 miCalm0.00 inOvercast
7:55 PM46.4 °F46.4 °F100 %30.32 in10.0 miSSW (200°)4.6 mph0.00 inOvercast
8:15 PM46.4 °F46.4 °F100 %30.32 in10.0 miSouth (190°)5.8 mph0.00 inOvercast
8:35 PM46.4 °F46.4 °F100 %30.32 in10.0 miSSW (210°)8.1 mph0.00 inOvercast
8:55 PM46.4 °F46.4 °F100 %30.32 in10.0 miSSW (210°)5.8 mph0.00 inOvercast
9:15 PM46.4 °F46.4 °F100 %30.32 in8.0 miSouth (180°)3.5 mph0.00 inOvercast
9:35 PM46.4 °F46.4 °F100 %30.33 in6.0 miSouth (180°)3.5 mph0.00 inOvercast
9:55 PM46.4 °F46.4 °F100 %30.33 in7.0 miSSW (200°)4.6 mph0.00 inOvercast
10:15 PM46.4 °F46.4 °F100 %30.33 in3.0 miSouth (180°)3.5 mph0.00 inOvercast
10:35 PM44.6 °F44.6 °F100 %30.33 in3.0 miCalm0.00 inOvercast
10:55 PM44.6 °F44.6 °F100 %30.33 in2.0 miCalm0.00 inOvercast
11:15 PM44.6 °F44.6 °F100 %30.34 in4.0 miNE (50°)3.5 mph0.00 inOvercast
11:35 PM44.6 °F44.6 °F100 %30.34 in7.0 miNNE (30°)3.5 mph0.00 inOvercast
11:55 PM44.6 °F44.6 °F100 %30.35 in7.0 miCalm0.00 inOvercast
Hourly data recorded from KBVS, located miles away from Hamilton, Washington







STORIES FROM OUR PARTNERS